H1 CPF 2 NER 2024 7 24 9 206 01 glonass143 H2 2007501 9143 46805 2024 7 24 0 0 0 2024 7 27 23 45 0 900 1 1 0 0 0 1 H9 10 0 60515 0.00000 0 8883510.692 12720671.299 20255065.484 10 0 60515 900.00000 0 8895597.628 15112484.595 18530214.758 10 0 60515 1800.00000 0 9071599.578 17263200.775 16445649.791 10 0 60515 2700.00000 0 9373705.122 19121098.417 14041734.093 10 0 60515 3600.00000 0 9756041.897 20644362.756 11365059.180 10 0 60515 4500.00000 0 10166775.951 21802649.614 8467548.057 10 0 60515 5400.00000 0 10550477.845 22578183.934 5405451.967 10 0 60515 6300.00000 0 10850655.485 22966346.567 2238259.427 10 0 60515 7200.00000 0 11012346.219 22975724.326 -972461.285 10 0 60515 8100.00000 0 10984657.726 22627620.904 -4164263.431 10 0 60515 9000.00000 0 10723149.050 21955049.096 -7275042.918 10 0 60515 9900.00000 0 10191949.617 21001246.849 -10244254.591 10 0 60515 10800.00000 0 9365525.004 19817779.983 -13014099.056 10 0 60515 11700.00000 0 8230013.160 18462312.065 -15530655.996 10 0 60515 12600.00000 0 6784073.041 16996136.105 -17744940.981 10 0 60515 13500.00000 0 5039208.349 15481572.803 -19613864.541 10 0 60515 14400.00000 0 3019551.389 13979345.559 -21101074.388 10 0 60515 15300.00000 0 761115.025 12546043.291 -22177664.188 10 0 60515 16200.00000 0 -1689456.823 11231778.038 -22822735.172 10 0 60515 17100.00000 0 -4276588.550 10078135.785 -23023799.916 10 0 60515 18000.00000 0 -6937851.561 9116506.309 -22777020.822 10 0 60515 18900.00000 0 -9606335.970 8366861.515 -22087279.144 10 0 60515 19800.00000 0 -12213216.732 7837032.670 -20968073.688 10 0 60515 20700.00000 0 -14690407.587 7522515.718 -19441251.598 10 0 60515 21600.00000 0 -16973192.614 7406811.609 -17536576.836 10 0 60515 22500.00000 0 -19002726.241 7462285.935 -15291145.086 10 0 60515 23400.00000 0 -20728298.030 7651510.387 -12748656.706 10 0 60515 24300.00000 0 -22109268.540 7929028.228 -9958562.145 10 0 60515 25200.00000 0 -23116596.344 8243468.277 -6975096.647 10 0 60515 26100.00000 0 -23733893.407 8539917.197 -3856223.306 10 0 60515 27000.00000 0 -23957965.871 8762449.221 -662505.273 10 0 60515 27900.00000 0 -23798818.855 8856705.883 2544070.734 10 0 60515 28800.00000 0 -23279126.308 8772416.391 5701296.517 10 0 60515 29700.00000 0 -22433189.346 8465751.993 8747946.647 10 0 60515 30600.00000 0 -21305427.735 7901414.775 11624961.559 10 0 60515 31500.00000 0 -19948468.591 7054372.684 14276586.732 10 0 60515 32400.00000 0 -18420912.869 5911167.508 16651446.306 10 0 60515 33300.00000 0 -16784873.358 4470740.427 18703530.982 10 0 60515 34200.00000 0 -15103387.064 2744739.933 20393081.802 10 0 60515 35100.00000 0 -13437809.721 757298.355 21687353.578 10 0 60515 36000.00000 0 -11845300.580 -1455714.826 22561244.051 10 0 60515 36900.00000 0 -10376501.686 -3847933.102 22997777.314 10 0 60515 37800.00000 0 -9073507.552 -6364176.485 22988432.677 10 0 60515 38700.00000 0 -7968209.132 -8942510.181 22533312.833 10 0 60515 39600.00000 0 -7081080.488 -11516594.607 21641147.961 10 0 60515 40500.00000 0 -6420458.303 -14018230.769 20329135.191 10 0 60515 41400.00000 0 -5982344.057 -16379996.741 18622615.777 10 0 60515 42300.00000 0 -5750737.091 -18537866.784 16554595.170 10 0 60515 43200.00000 0 -5698484.694 -20433704.920 14165114.174 10 0 60515 44100.00000 0 -5788613.711 -22017529.499 11500482.137 10 0 60515 45000.00000 0 -5976087.853 -23249454.264 8612386.076 10 0 60515 45900.00000 0 -6209916.759 -24101224.511 5556892.200 10 0 60515 46800.00000 0 -6435527.670 -24557283.537 2393358.711 10 0 60515 47700.00000 0 -6597299.100 -24615324.007 -816719.016 10 0 60515 48600.00000 0 -6641148.601 -24286300.527 -4010908.189 10 0 60515 49500.00000 0 -6517064.076 -23593902.400 -7127059.373 10 0 60515 50400.00000 0 -6181470.150 -22573508.494 -10104523.608 10 0 60515 51300.00000 0 -5599327.938 -21270668.212 -12885341.273 10 0 60515 52200.00000 0 -4745877.768 -19739172.738 -15415378.537 10 0 60515 53100.00000 0 -3607949.571 -18038798.214 -17645388.383 10 0 60515 54000.00000 0 -2184784.078 -16232816.357 -19531974.854 10 0 60515 54900.00000 0 -488328.778 -14385377.770 -21038441.321 10 0 60515 55800.00000 0 1457005.032 -12558878.401 -22135506.041 10 0 60515 56700.00000 0 3615114.941 -10811420.038 -22801871.152 10 0 60515 57600.00000 0 5939478.295 -9194471.380 -23024634.313 10 0 60515 58500.00000 0 8374868.663 -7750827.523 -22799535.336 10 0 60515 59400.00000 0 10859446.622 -6512952.733 -22131033.502 10 0 60515 60300.00000 0 13327137.944 -5501775.028 -21032214.518 10 0 60515 61200.00000 0 15710200.176 -4725981.883 -19524529.362 10 0 60515 62100.00000 0 17941870.876 -4181845.140 -17637370.474 10 0 60515 63000.00000 0 19958987.285 -3853580.887 -15407493.830 10 0 60515 63900.00000 0 21704468.528 -3714227.564 -12878298.462 10 0 60515 64800.00000 0 23129557.148 -3727003.746 -10098977.648 10 0 60515 65700.00000 0 24195726.967 -3847086.938 -7123558.523 10 0 60515 66600.00000 0 24876178.203 -4023737.082 -4009849.101 10 0 60515 67500.00000 0 25156858.175 -4202674.066 -818313.394 10 0 60515 68400.00000 0 25036965.812 -4328607.996 2389103.240 10 0 60515 69300.00000 0 24528919.816 -4347814.725 5550175.463 10 0 60515 70200.00000 0 23657792.822 -4210647.446 8603602.625 10 0 60515 71100.00000 0 22460236.115 -3873878.035 11490193.392 10 0 60515 72000.00000 0 20982940.677 -3302769.204 14154007.535 10 0 60515 72900.00000 0 19280699.443 -2472789.957 16543433.192 10 0 60515 73800.00000 0 17414151.991 -1370901.924 18612179.334 10 0 60515 74700.00000 0 15447305.822 3637.931 20320164.973 10 0 60515 75600.00000 0 13444937.249 1638992.515 21634288.747 10 0 60515 76500.00000 0 11469979.625 3510990.652 22529064.863 10 0 60515 77400.00000 0 9581006.885 5583894.888 22987113.792 10 0 60515 78300.00000 0 7829916.224 7811660.542 22999498.800 10 0 60515 79200.00000 0 6259905.388 10139635.239 22565902.022 10 0 60515 80100.00000 0 4903827.923 12506629.921 21694636.575 10 0 60515 81000.00000 0 3782994.128 14847276.932 20402494.044 10 0 60515 81900.00000 0 2906467.128 17094578.631 18714429.484 10 0 60515 82800.00000 0 2270883.132 19182541.747 16663089.023 10 0 60515 83700.00000 0 1860803.175 21048788.677 14288188.073 10 0 60515 84600.00000 0 1649581.556 22637037.350 11635750.979 10 0 60515 85500.00000 0 1600714.505 23899346.159 8757225.829 10 0 60516 0.00000 0 1669612.246 24798029.730 5708491.068 10 0 60516 900.00000 0 1805719.647 25307165.085 2548771.022 10 0 60516 1800.00000 0 1954895.363 25413623.115 -660514.537 10 0 60516 2700.00000 0 2061948.386 25117582.777 -3856949.626 10 0 60516 3600.00000 0 2073223.636 24432504.346 -6978342.126 10 0 60516 4500.00000 0 1939125.944 23384562.745 -9963941.690 10 0 60516 5400.00000 0 1616474.170 22011564.328 -12755630.555 10 0 60516 6300.00000 0 1070584.300 20361392.570 -15299063.122 10 0 60516 7200.00000 0 276991.848 18490048.150 -17544731.170 10 0 60516 8100.00000 0 -777260.735 16459366.147 -19448933.287 10 0 60516 9000.00000 0 -2092827.360 14334506.601 -20974629.205 10 0 60516 9900.00000 0 -3657787.124 12181324.197 -22092162.160 10 0 60516 10800.00000 0 -5447911.124 10063727.595 -22779835.282 10 0 60516 11700.00000 0 -7427456.918 8041139.101 -23024331.088 10 0 60516 12600.00000 0 -9550457.961 6166160.816 -22820966.226 10 0 60516 13500.00000 0 -11762454.528 4482544.369 -22173777.077 10 0 60516 14400.00000 0 -14002594.080 3023548.262 -21095434.932 10 0 60516 15300.00000 0 -16206013.512 1810750.396 -19606992.906 10 0 60516 16200.00000 0 -18306403.953 853363.969 -17737469.866 10 0 60516 17100.00000 0 -20238651.147 148083.743 -15523279.763 10 0 60516 18000.00000 0 -21941441.278 -320532.665 -13007517.779 10 0 60516 18900.00000 0 -23359723.559 -579166.326 -10239117.396 10 0 60516 19800.00000 0 -24446926.953 -664360.912 -7271895.010 10 0 60516 20700.00000 0 -25166838.682 -620728.560 -4163500.951 10 0 60516 21600.00000 0 -25495066.425 -498814.716 -974297.576 10 0 60516 22500.00000 0 -25420023.621 -352713.226 2233813.534 10 0 60516 23400.00000 0 -24943397.284 -237533.252 5398592.228 10 0 60516 24300.00000 0 -24080079.458 -206825.597 8458664.865 10 0 60516 25200.00000 0 -22857565.885 -310077.518 11354710.460 10 0 60516 26100.00000 0 -21314847.598 -590381.957 14030605.069 10 0 60516 27000.00000 0 -19500842.206 -1082379.588 16434502.640 10 0 60516 27900.00000 0 -17472430.535 -1810560.492 18519832.012 10 0 60516 28800.00000 0 -15292180.475 -2787997.103 20246191.485 10 0 60516 29700.00000 0 -13025852.476 -4015562.030 21580124.526 10 0 60516 30600.00000 0 -10739789.901 -5481664.256 22495762.457 10 0 60516 31500.00000 0 -8498301.907 -7162515.697 22975322.437 10 0 60516 32400.00000 0 -6361146.649 -9022918.269 23009451.642 10 0 60516 33300.00000 0 -4381218.258 -11017540.137 22597411.283 10 0 60516 34200.00000 0 -2602532.730 -13092629.579 21747096.770 10 0 60516 35100.00000 0 -1058595.515 -15188096.739 20474893.212 10 0 60516 36000.00000 0 228782.044 -17239878.184 18805368.284 10 0 60516 36900.00000 0 1250168.643 -19182487.028 16770807.367 10 0 60516 37800.00000 0 2008673.082 -20951643.349 14410598.813 10 0 60516 38700.00000 0 2519572.023 -22486875.698 11770480.057 10 0 60516 39600.00000 0 2809421.179 -23733985.122 8901658.140 10 0 60516 40500.00000 0 2914687.443 -24647268.316 5859820.880 10 0 60516 41400.00000 0 2879959.770 -25191406.093 2704057.372 10 0 60516 42300.00000 0 2755814.667 -25342936.986 -504291.320 10 0 60516 43200.00000 0 2596427.057 -25091253.024 -3702828.672 10 0 60516 44100.00000 0 2457028.427 -24439074.739 -6829322.588 10 0 60516 45000.00000 0 2391320.912 -23402384.426 -9822924.064 10 0 60516 45900.00000 0 2448958.063 -22009819.713 -12625359.924 10 0 60516 46800.00000 0 2673200.387 -20301552.444 -15182075.455 10 0 60516 47700.00000 0 3098846.277 -18327699.748 -17443303.747 10 0 60516 48600.00000 0 3750527.249 -16146334.089 -19365040.223 10 0 60516 49500.00000 0 4641440.805 -13821175.934 -20909902.937 10 0 60516 50400.00000 0 5772575.529 -11419066.042 -22047861.652 10 0 60516 51300.00000 0 7132462.052 -9007323.443 -22756821.583 10 0 60516 52200.00000 0 8697461.151 -6651099.665 -23023050.672 10 0 60516 53100.00000 0 10432577.489 -4410839.691 -22841442.489 10 0 60516 54000.00000 0 12292765.319 -2339955.268 -22215610.094 10 0 60516 54900.00000 0 14224671.697 -482806.964 -21157809.497 10 0 60516 55800.00000 0 16168744.419 1126921.809 -19688694.669 10 0 60516 56700.00000 0 18061616.517 2467392.254 -17836909.214 10 0 60516 57600.00000 0 19838667.588 3529271.960 -15638522.987 10 0 60516 58500.00000 0 21436654.802 4315865.078 -13136324.880 10 0 60516 59400.00000 0 22796303.480 4842707.401 -10378985.782 10 0 60516 60300.00000 0 23864748.891 5136645.278 -7420108.232 10 0 60516 61200.00000 0 24597727.141 5234438.909 -4317181.525 10 0 60516 62100.00000 0 24961423.606 5180950.541 -1130462.856 10 0 60516 63000.00000 0 24933901.807 5026995.347 2078193.512 10 0 60516 63900.00000 0 24506053.221 4826946.783 5246536.063 10 0 60516 64800.00000 0 23682028.716 4636198.376 8313121.395 10 0 60516 65700.00000 0 22479133.950 4508589.594 11218501.804 10 0 60516 66600.00000 0 20927193.485 4493904.744 13906372.185 10 0 60516 67500.00000 0 19067410.446 4635550.485 16324654.438 10 0 60516 68400.00000 0 16950769.342 4968509.829 18426498.988 10 0 60516 69300.00000 0 14636048.483 5517658.755 20171184.731 10 0 60516 70200.00000 0 12187524.331 6296516.336 21524900.866 10 0 60516 71100.00000 0 9672462.504 7306481.183 22461396.342 10 0 60516 72000.00000 0 7158498.842 8536586.803 22962485.118 10 0 60516 72900.00000 0 4711018.127 9963787.055 23018398.003 10 0 60516 73800.00000 0 2390638.086 11553760.991 22627974.587 10 0 60516 74700.00000 0 250901.950 13262204.883 21798691.443 10 0 60516 75600.00000 0 -1663725.730 15036559.070 20546525.668 10 0 60516 76500.00000 0 -3319477.637 16818099.123 18895655.613 10 0 60516 77400.00000 0 -4694449.998 18544305.406 16878003.605 10 0 60516 78300.00000 0 -5779268.560 20151413.226 14532628.342 10 0 60516 79200.00000 0 -6577226.780 21577037.677 11904977.521 10 0 60516 80100.00000 0 -7103890.684 22762763.643 9046014.147 10 0 60516 81000.00000 0 -7386187.147 23656592.241 6011232.609 10 0 60516 81900.00000 0 -7461014.166 24215140.503 2859583.090 10 0 60516 82800.00000 0 -7373432.018 24405500.906 -347674.890 10 0 60516 83700.00000 0 -7174512.153 24206681.437 -3548167.296 10 0 60516 84600.00000 0 -6918935.499 23610564.269 -6679624.952 10 0 60516 85500.00000 0 -6662442.679 22622341.486 -9681102.876 10 0 60517 0.00000 0 -6459245.277 21260408.522 -12494174.640 10 0 60517 900.00000 0 -6359508.834 19555718.108 -15064079.005 10 0 60517 1800.00000 0 -6407015.734 17550623.180 -17340791.826 10 0 60517 2700.00000 0 -6637107.691 15297254.568 -19280006.704 10 0 60517 3600.00000 0 -7074996.297 12855503.098 -20844000.992 10 0 60517 4500.00000 0 -7734513.852 10290690.030 -22002371.602 10 0 60517 5400.00000 0 -8617358.026 7671023.491 -22732626.084 10 0 60517 6300.00000 0 -9712862.815 5064947.201 -23020617.714 10 0 60517 7200.00000 0 -10998305.896 2538492.125 -22860816.504 10 0 60517 8100.00000 0 -12439739.754 152741.202 -22256411.315 10 0 60517 9000.00000 0 -13993311.874 -2038487.757 -21219241.592 10 0 60517 9900.00000 0 -15607018.613 -3990645.215 -19769560.459 10 0 60517 10800.00000 0 -17222819.197 -5670056.775 -17935634.192 10 0 60517 11700.00000 0 -18779021.120 -7055068.195 -15753186.158 10 0 60517 12600.00000 0 -20212836.785 -8136682.370 -13264696.331 10 0 60517 13500.00000 0 -21463004.114 -8918663.543 -10518570.233 10 0 60517 14400.00000 0 -22472361.092 -9417106.346 -7568193.712 10 0 60517 15300.00000 0 -23190266.213 -9659489.687 -4470892.202 10 0 60517 16200.00000 0 -23574763.287 -9683257.096 -1286814.971 10 0 60517 17100.00000 0 -23594399.884 -9533984.954 1922233.718 10 0 60517 18000.00000 0 -23229623.262 -9263217.138 5093993.556 10 0 60517 18900.00000 0 -22473695.439 -8926058.480 8166953.840 10 0 60517 19800.00000 0 -21333089.283 -8578629.260 11081542.462 10 0 60517 20700.00000 0 -19827349.162 -8275488.546 13781275.295 10 0 60517 21600.00000 0 -17988422.040 -8067135.162 16213844.120 10 0 60517 22500.00000 0 -15859486.839 -7997691.523 18332122.599 10 0 60517 23400.00000 0 -13493330.554 -8102867.712 20095071.559 10 0 60517 24300.00000 0 -10950338.183 -8408291.263 21468526.907 10 0 60517 25200.00000 0 -8296179.233 -8928272.792 22425855.831 10 0 60517 26100.00000 0 -5599285.892 -9665059.494 22948469.323 10 0 60517 27000.00000 0 -2928226.306 -10608608.250 23026181.717 10 0 60517 27900.00000 0 -349080.612 -11736888.694 22657410.553 10 0 60517 28800.00000 0 2077072.741 -13016704.622 21849212.869 10 0 60517 29700.00000 0 4296457.319 -14405000.701 20617156.794 10 0 60517 30600.00000 0 6264591.253 -15850601.250 18985030.176 10 0 60517 31500.00000 0 7947890.016 -17296309.711 16984390.871 10 0 60517 32400.00000 0 9324813.333 -18681282.119 14653966.259 10 0 60517 33300.00000 0 10386508.806 -19943576.060 12038912.381 10 0 60517 34200.00000 0 11136925.593 -21022768.684 9189946.024 10 0 60517 35100.00000 0 11592393.570 -21862533.904 6162365.713 10 0 60517 36000.00000 0 11780685.805 -22413070.042 3014980.081 10 0 60517 36900.00000 0 11739604.069 -22633274.941 -191035.698 10 0 60517 37800.00000 0 11515147.399 -22492575.785 -3393332.961 10 0 60517 38700.00000 0 11159341.660 -21972335.196 -6529608.357 10 0 60517 39600.00000 0 10727822.635 -21066772.894 -9538823.794 10 0 60517 40500.00000 0 10277275.871 -19783362.720 -12362402.852 10 0 60517 41400.00000 0 9862842.728 -18142687.080 -14945379.382 10 0 60517 42300.00000 0 9535603.552 -16177753.921 -17237474.958 10 0 60517 43200.00000 0 9340245.564 -13932804.230 -19194083.529 10 0 60517 44100.00000 0 9313015.084 -11461659.591 -20777143.581 10 0 60517 45000.00000 0 9480041.441 -8825678.781 -21955880.609 10 0 60517 45900.00000 0 9856103.984 -6091408.745 -22707405.491 10 0 60517 46800.00000 0 10443894.609 -3328027.980 -23017157.350 10 0 60517 47700.00000 0 11233807.130 -604688.896 -22879182.668 10 0 60517 48600.00000 0 12204262.442 2012130.334 -22296245.687 10 0 60517 49500.00000 0 13322555.754 4461154.574 -21279768.417 10 0 60517 50400.00000 0 14546190.097 6688616.526 -19849601.878 10 0 60517 51300.00000 0 15824639.887 8650242.478 -18033633.379 10 0 60517 52200.00000 0 17101470.158 10312837.503 -15867237.810 10 0 60517 53100.00000 0 18316722.176 11655405.414 -13392583.902 10 0 60517 54000.00000 0 19409464.910 12669758.419 -10657809.168 10 0 60517 54900.00000 0 20320404.926 13360592.835 -7716079.843 10 0 60517 55800.00000 0 20994444.792 13745029.569 -4624554.347 10 0 60517 56700.00000 0 21383082.326 13851640.572 -1443270.724 10 0 60517 57600.00000 0 21446549.780 13719003.925 1766020.104 10 0 60517 58500.00000 0 21155603.043 13393849.888 4941052.314 10 0 60517 59400.00000 0 20492885.737 12928877.270 8020251.016 10 0 60517 60300.00000 0 19453810.993 12380333.018 10943922.557 10 0 60517 61200.00000 0 18046923.886 11805457.609 13655406.343 10 0 60517 62100.00000 0 16293729.254 11259904.116 16102166.236 10 0 60517 63000.00000 0 14227991.792 10795239.587 18236800.994 10 0 60517 63900.00000 0 11894537.185 10456633.654 20017954.872 10 0 60517 64800.00000 0 9347603.511 10280831.206 21411111.639 10 0 60517 65700.00000 0 6648810.562 10294493.978 22389257.528 10 0 60517 66600.00000 0 3864830.321 10512980.455 22933401.010 10 0 60517 67500.00000 0 1064853.949 10939615.306 23032939.994 10 0 60517 68400.00000 0 -1682041.114 11565479.284 22685869.618 10 0 60517 69300.00000 0 -4309516.159 12369729.021 21898826.581 10 0 60517 70200.00000 0 -6756480.840 13320434.255 20686968.782 10 0 60517 71100.00000 0 -8969384.508 14375898.502 19073691.845 10 0 60517 72000.00000 0 -10904194.987 15486409.055 17090187.017 10 0 60517 72900.00000 0 -12527983.188 16596344.048 14774847.856 10 0 60517 73800.00000 0 -13820048.004 17646549.109 12172535.960 10 0 60517 74700.00000 0 -14772534.713 18576884.359 9333718.918 10 0 60517 75600.00000 0 -15390521.145 19328834.876 6313496.307 10 0 60517 76500.00000 0 -15691568.073 19848074.461 3170532.090 10 0 60517 77400.00000 0 -15704752.802 20086873.990 -34086.000 10 0 60517 78300.00000 0 -15469226.935 20006251.728 -3238037.697 10 0 60517 79200.00000 0 -15032359.521 19577773.540 -6378988.382 10 0 60517 80100.00000 0 -14447544.674 18784925.520 -9395809.594 10 0 60517 81000.00000 0 -13771767.108 17623999.604 -12229777.201 10 0 60517 81900.00000 0 -13063029.491 16104453.345 -14825722.893 10 0 60517 82800.00000 0 -12377751.455 14248727.432 -17133115.627 10 0 60517 83700.00000 0 -11768251.198 12091527.538 -19107051.255 10 0 60517 84600.00000 0 -11280417.039 9678599.821 -20709130.584 10 0 60517 85500.00000 0 -10951667.951 7065050.837 -21908208.502 10 0 60518 0.00000 0 -10809289.652 4313282.033 -22680999.596 10 0 60518 900.00000 0 -10869216.661 1490623.323 -23012529.033 10 0 60518 1800.00000 0 -11135311.773 -1333231.982 -22896419.356 10 0 60518 2700.00000 0 -11599172.912 -4088889.172 -22335009.469 10 0 60518 3600.00000 0 -12240475.365 -6709896.934 -21339302.853 10 0 60518 4500.00000 0 -13027834.460 -9135266.774 -19928746.933 10 0 60518 5400.00000 0 -13920151.907 -11311762.723 -18130848.207 10 0 60518 6300.00000 0 -14868388.651 -13195866.939 -15980630.936 10 0 60518 7200.00000 0 -15817689.101 -14755340.492 -13519950.208 10 0 60518 8100.00000 0 -16709766.882 -15970315.630 -10796672.963 10 0 60518 9000.00000 0 -17485451.264 -16833875.559 -7863743.169 10 0 60518 9900.00000 0 -18087286.663 -17352099.187 -4778149.556 10 0 60518 10800.00000 0 -18462075.501 -17543570.754 -1599816.282 10 0 60518 11700.00000 0 -18563257.137 -17438376.704 1609561.681 10 0 60518 12600.00000 0 -18353022.567 -17076633.505 4787715.550 10 0 60518 13500.00000 0 -17804075.843 -16506609.732 7873008.731 10 0 60518 14400.00000 0 -16900968.048 -15782522.495 10805628.424 10 0 60518 15300.00000 0 -15640947.685 -14962101.671 13528739.837 10 0 60518 16200.00000 0 -14034291.596 -14104024.848 15989581.026 10 0 60518 17100.00000 0 -12104102.140 -13265330.882 18140477.731 10 0 60518 18000.00000 0 -9885578.570 -12498920.569 19939759.254 10 0 60518 18900.00000 0 -7424792.162 -11851249.001 21352558.536 10 0 60518 19800.00000 0 -4777015.048 -11360305.885 22351481.809 10 0 60518 20700.00000 0 -2004671.001 -11053968.102 22917135.644 10 0 60518 21600.00000 0 825008.204 -10948793.114 23038501.803 10 0 60518 22500.00000 0 3642525.157 -11049303.698 22713152.978 10 0 60518 23400.00000 0 6378754.044 -11347794.071 21947305.195 10 0 60518 24300.00000 0 8967564.842 -11824665.978 20755705.515 10 0 60518 25200.00000 0 11348326.955 -12449281.356 19161356.465 10 0 60518 26100.00000 0 13468189.327 -13181296.673 17195081.536 10 0 60518 27000.00000 0 15284043.028 -13972423.863 14894939.024 10 0 60518 27900.00000 0 16764085.027 -14768544.749 12305494.322 10 0 60518 28800.00000 0 17888918.111 -15512090.600 9476963.711 10 0 60518 29700.00000 0 18652140.970 -16144586.983 6464245.377 10 0 60518 30600.00000 0 19060403.683 -16609256.509 3325855.856 10 0 60518 31500.00000 0 19132926.158 -16853569.151 122792.439 10 0 60518 32400.00000 0 18900499.875 -16831631.515 -3082656.160 10 0 60518 33300.00000 0 18404015.142 -16506312.896 -6228127.257 10 0 60518 34200.00000 0 17692576.423 -15851016.805 -9252405.172 10 0 60518 35100.00000 0 16821285.907 -14851021.515 -12096621.075 10 0 60518 36000.00000 0 15848789.741 -13504331.468 -14705407.309 10 0 60518 36900.00000 0 14834691.447 -11822002.095 -17027982.769 10 0 60518 37800.00000 0 13836942.671 -9827923.061 -19019147.481 10 0 60518 38700.00000 0 12909322.254 -7558067.902 -20640166.502 10 0 60518 39600.00000 0 12099110.606 -5059240.678 -21859525.671 10 0 60518 40500.00000 0 11445057.879 -2387371.475 -22653544.540 10 0 60518 41400.00000 0 10975731.667 394568.471 -23006834.754 10 0 60518 42300.00000 0 10708313.701 3218945.337 -22912595.371 10 0 60518 43200.00000 0 10647895.787 6016036.113 -22372739.800 10 0 60518 44100.00000 0 10787304.015 8716689.985 -21397852.402 10 0 60518 45000.00000 0 11107457.910 11254967.307 -20006976.013 10 0 60518 45900.00000 0 11578248.561 13570646.844 -18227234.939 10 0 60518 46800.00000 0 12159897.935 15611497.682 -16093301.056 10 0 60518 47700.00000 0 12804741.290 17335221.985 -13646713.696 10 0 60518 48600.00000 0 13459356.849 18710988.802 -10935066.772 10 0 60518 49500.00000 0 14066952.297 19720496.169 -8011079.207 10 0 60518 50400.00000 0 14569906.928 20358518.607 -4931566.999 10 0 60518 51300.00000 0 14912361.761 20632918.699 -1756337.179 10 0 60518 52200.00000 0 15042748.080 20564123.862 1452974.587 10 0 60518 53100.00000 0 14916147.510 20184091.833 4634099.908 10 0 60518 54000.00000 0 14496383.994 19534809.690 7725343.736 10 0 60518 54900.00000 0 13757759.423 18666390.645 10666777.183 10 0 60518 55800.00000 0 12686359.709 17634849.425 13401394.061 10 0 60518 56700.00000 0 11280876.194 16499650.223 15876209.113 10 0 60518 57600.00000 0 9552907.488 15321130.360 18043277.230 10 0 60518 58500.00000 0 7526728.515 14157907.616 19860614.594 10 0 60518 59400.00000 0 5238535.552 13064379.556 21293004.803 10 0 60518 60300.00000 0 2735197.615 12088419.018 22312675.222 10 0 60518 61200.00000 0 72564.854 11269361.590 22899831.274 10 0 60518 62100.00000 0 -2686597.237 10636368.674 23043038.922 10 0 60518 63000.00000 0 -5474963.719 10207234.090 22739448.311 10 0 60518 63900.00000 0 -8223200.073 9987683.868 21994854.217 10 0 60518 64800.00000 0 -10862601.878 9971198.501 20823591.784 10 0 60518 65700.00000 0 -13327716.195 10139365.325 19248268.852 10 0 60518 66600.00000 0 -15558836.926 10462746.711 17299339.089 10 0 60518 67500.00000 0 -17504271.255 10902228.236 15014523.029 10 0 60518 68400.00000 0 -19122283.323 11410790.817 12438087.019 10 0 60518 69300.00000 0 -20382634.202 11935632.753 9619992.961 10 0 60518 70200.00000 0 -21267653.790 12420552.609 6614934.431 10 0 60518 71100.00000 0 -21772799.476 12808492.386 3481277.286 10 0 60518 72000.00000 0 -21906677.891 13044133.206 279925.172 10 0 60518 72900.00000 0 -21690528.572 13076433.034 -2926867.864 10 0 60518 73800.00000 0 -21157191.238 12860997.989 -6076714.044 10 0 60518 74700.00000 0 -20349600.288 12362185.557 -9108313.278 10 0 60518 75600.00000 0 -19318870.429 11554849.181 -11962654.634 10 0 60518 76500.00000 0 -18122054.729 10425648.853 -14584173.448 10 0 60518 77400.00000 0 -16819670.436 8973870.756 -16921840.590 10 0 60518 78300.00000 0 -15473097.708 7211719.898 -18930161.937 10 0 60518 79200.00000 0 -14141961.671 5164072.087 -20570068.079 10 0 60518 80100.00000 0 -12881608.707 2867694.558 -21809676.681 10 0 60518 81000.00000 0 -11740783.620 369967.058 -22624912.649 10 0 60518 81900.00000 0 -10759605.506 -2272843.809 -22999974.290 10 0 60518 82800.00000 0 -9967927.253 -4997685.321 -22927636.720 10 0 60518 83700.00000 0 -9384147.099 -7737107.238 -22409387.102 10 0 60518 84600.00000 0 -9014521.448 -10421839.041 -21455389.565 10 0 60518 85500.00000 0 -8853006.807 -12983448.761 -20084280.906 99